STARLINK-1977 (47575 NORAD) Tracking and Keplerian Element Data

This shows tracking and keplerian element data for the satellite.

Feedback or suggestion? Click here.




ElementValue
Catalog47575
NameSTARLINK-1977
Epoch Orbit176
Epoch Day59.91667824
Epoch Year2021
RAAN3.0056
Inclination53.0541
Eccentricity0.0001151
Argument of Perigee62.4087
Mean Anonmoly242.1871
Mean Motion15.57653294
Decay Rate-0.00930116
L11 47575U 21009AD 21059.91667824 -.00930116 00000-0 -13615-1 0 9999
L22 47575 53.0541 3.0056 0001151 62.4087 242.1871 15.57653294 1763

Live tracking and technical data element details for STARLINK-1977 (NORAD 47575). STARLINK-1977 can be tracked NOW for your location showing map with azimuth and elevation plus other details from your city location.

Track the satellite on the map from your city or location and see movement details for azimuth, elevation, latitude, longitude, range, height, and movement on the map or in text.







IsCatalogInMostPopularTable: catalog: 47575, numindb: 4
Update: records affected: 1



GetName: 47575 STARLINK-1977

Hit Count: updated at: Mon, 01 Mar 2021 16:11:36 GMT